GW1372 Weather Reports


Display with metric or nautical units.
time (UTC)temp
F
wind
direction
speed
MPH
gust
MPH
rain 1hr
in
rain 24hr
in
rain mn
in
humidity
%
barometer
mb
20260505063004 61 157 0.0 1.0 0.00 0.00 0.00 70 1009.9
20260505060004 63 235 0.0 2.0 0.00 0.00 0.00 67 1009.6
20260505055005 63 259 1.0 2.0 0.00 0.00 0.00 66 1009.6
20260505054005 64 221 0.0 2.0 0.00 0.00 0.00 64 1009.6
20260505053004 65 265 0.0 2.0 0.00 0.00 0.00 63 1009.4
20260505052005 65 209 0.0 3.0 0.00 0.00 0.00 62 1009.3
20260505041005 70 273 1.0 5.0 0.00 0.00 0.00 55 1008.3
20260505034005 72 298 1.0 6.0 0.00 0.00 0.00 50 1007.8
20260505033005 73 193 1.0 2.0 0.00 0.00 0.00 48 1007.6
20260505032005 74 246 1.0 3.0 0.00 0.00 0.00 48 1007.5
20260505031005 75 212 0.0 2.0 0.00 0.00 0.00 47 1007.3
20260505025004 76 5 0.0 1.0 0.00 0.00 0.00 44 1007.3
20260505024005 77 219 0.0 2.0 0.00 0.00 0.00 43 1007.1
20260505022004 78 250 0.0 2.0 0.00 0.00 0.00 40 1007.2
20260505021006 79 282 0.0 3.0 0.00 0.00 0.00 39 1007.2
20260505020004 79 251 0.0 3.0 0.00 0.00 0.00 36 1007.1
20260505015005 79 178 0.0 1.0 0.00 0.00 0.00 34 1007.2
20260505014005 79 304 0.0 2.0 0.00 0.00 0.00 33 1007.2
20260505012004 80 263 1.0 2.0 0.00 0.00 0.00 33 1007.3
20260505011004 80 199 2.0 5.0 0.00 0.00 0.00 32 1007.3
20260505010005 80 219 0.0 5.0 0.00 0.00 0.00 31 1007.4
20260505005004 80 255 0.0 2.0 0.00 0.00 0.00 32 1007.4
20260505004005 80 347 1.0 3.0 0.00 0.00 0.00 32 1007.4
20260505003004 80 199 0.0 3.0 0.00 0.00 0.00 31 1007.4
20260505001005 80 230 2.0 3.0 0.00 0.00 0.00 31 1007.5
20260505000005 80 199 1.0 3.0 0.00 0.00 0.00 29 1007.6
20260504235004 80 207 1.0 2.0 0.00 0.00 0.00 29 1007.6
20260504234004 80 229 0.0 2.0 0.00 0.00 0.00 30 1007.7
20260504233004 80 269 1.0 5.0 0.00 0.00 0.00 29 1007.7
20260504232005 80 260 1.0 5.0 0.00 0.00 0.00 29 1007.7
20260504231004 80 268 1.0 3.0 0.00 0.00 0.00 29 1007.7
20260504230005 80 189 2.0 5.0 0.00 0.00 0.00 28 1007.8
20260504223004 80 231 0.0 5.0 0.00 0.00 0.00 30 1008.1
20260504222005 80 273 1.0 5.0 0.00 0.00 0.00 31 1008.3
20260504221004 80 220 1.0 5.0 0.00 0.00 0.00 30 1008.4
20260504220005 80 269 1.0 5.0 0.00 0.00 0.00 34 1008.5
20260504215005 80 192 3.0 5.0 0.00 0.00 0.00 32 1008.6
20260504212005 81 198 1.0 5.0 0.00 0.00 0.00 29 1008.6
20260504205005 80 198 1.0 3.0 0.00 0.00 0.00 30 1008.8
20260504204005 81 221 1.0 2.0 0.00 0.00 0.00 29 1008.8
20260504201005 80 278 1.0 3.0 0.00 0.00 0.00 30 1008.8
20260504200005 80 255 1.0 5.0 0.00 0.00 0.00 30 1008.8
20260504195005 80 167 1.0 2.0 0.00 0.00 0.00 32 1008.8
20260504194005 80 318 2.0 3.0 0.00 0.00 0.00 32 1008.8
20260504193004 80 150 1.0 3.0 0.00 0.00 0.00 31 1008.9
20260504192004 80 56 2.0 3.0 0.00 0.00 0.00 34 1008.9
20260504191004 80 202 1.0 3.0 0.00 0.00 0.00 33 1009.1
20260504190005 79 226 0.0 3.0 0.00 0.00 0.00 34 1009.1
20260504185005 79 58 1.0 2.0 0.00 0.00 0.00 33 1009.2
20260504183005 77 179 0.0 3.0 0.00 0.00 0.00 37 1009.2
20260504182004 77 234 1.0 3.0 0.00 0.00 0.00 38 1009.3
20260504175004 75 229 1.0 2.0 0.00 0.00 0.00 40 1009.4
20260504174004 74 225 1.0 2.0 0.00 0.00 0.00 41 1009.4
20260504173006 73 245 1.0 3.0 0.00 0.00 0.00 42 1009.3
20260504172004 73 160 1.0 2.0 0.00 0.00 0.00 41 1009.3
20260504171005 73 222 1.0 2.0 0.00 0.00 0.00 45 1009.3
20260504082004 56 25 0.0 0.0 0.00 0.00 0.00 80 1007.6
20260504081004 56 25 0.0 0.0 0.00 0.00 0.00 80 1007.7